Airfield :
LOGIN :

Register | Disclaimer

   EN    FR    IT 

 










Legend :    VFR   Marginal VFR   IFR   Intensive IFR   Very Intensive IFR
Visi :
Ceiling :
>= 8 km
>= 3000ft
5 to 8 km
1000 to 3000 ft
1500m to 5 km
500 to 1000 ft
800 to 1500m
200 to 500 ft
< 800m
< 200 ft
Symbols :   Thunderstorms  Fog  Heavy snow  Heavy precipitations  Wind > 20 kt
SIGMETs :     Misc.  Thunderstorms  Icing  Turbulence  Mountain Waves  Volcanic Ashes







- Airport Elevation : 29 ft


LIRM - Grazzanise Caserta

CURRENT METAR :
  • 171455Z 25010KT 9999 FEW030 31/27 Q1014

EXPIRED METARs :
  • 171355Z 26010KT 9999 FEW030 31/28 Q1014
  • 171255Z 26012KT 9999 FEW030 31/26 Q1015 RMK FEW VIS MIN 9999 WIND THR06 25011KT BLK BLU

TAF TAF LIRM
Valid from the 17 at 15:00 until the 18 at 00:00 UTC


171400Z 1715/1724 26013KT CAVOK
BECMG 1717/1718 VRB03KT
No reported NOTAMs for that airfield.



MET'MAP, your aeronautical weather chart ! - Copyright ORBIFLY December 2007 - Disclaimer

ORBIFLY MET'MAP TEAM :

Programming & Development : Alexandra Zaïnal
Concept & Development : Baudouin d'Aumeries
Co-Development & Prog : Marc-Olivier Méhu
Technical & hardware support : Manuel Goepfert

Contact : metmap@orbifly.com




SOURCES & CREDITS :

   NOAA